www.pogodaiklimat.ru

Погода и климат >> Архив погоды >> Индия >> Belgaum Airport


ПОГОДА в Belgaum Airport

  • Прогноз погоды в Belgaum Airport
  • Монитор погоды в Belgaum Airport
  • Климат города

АРХИВ ПОГОДЫ в Belgaum Airport

Время (UTC), дата Ветер
(напр.,м/с)
 
Видим.   Явления Облачность Т
(С)
Тd
(С)
f
(%)
Тe
(С)
Тes
(С)
Комфортность P
(гПа)
Po
(гПа)
Тmin
(С)
Tmax
(С)
R
(мм)
R24
(мм)
S
(см)
15 15.02 В 2 4000 м 4/0
[Ci fib]
+25.2 +14.6 52 +28 +28 жарко 1015.3 933.4
18 15.02 В 2 4000 м 1/0
[Ci fib]
+21.8 +13.1 58 +24 +24 комфорт 1017.1 934.1
21 15.02 штиль 0 4000 м ясно +20.2 +13.5 65 +22 +22 комфорт 1016.2 933.0
00 16.02 штиль 0 4000 м 4/0
[Ci fib]
+20.0 +12.9 64 +22 +22 комфорт 1016.0 932.6
03 16.02 В 4 4000 м 6/0
[Ci fib]
+23.2 +15.2 61 +27 +30 душно 1016.3 933.9 +17.2 +31.4
06 16.02 В 3 10 км 4/1 450 м
[Sc Ci fib]
+28.4 +18.1 54 +33 +44 очень
душно
1015.1 934.1
09 16.02 В 4 10 км 3/0
[Ci fib]
+31.4 +17.1 42 +35 +44 очень
душно
1010.6 930.8
12 16.02 С 2 10 км 4/1 450 м
[Sc Ci fib]
+30.0 +17.6 47 +34 +35 очень
душно
1010.6 930.2 +31.8
15 16.02 штиль 0 4000 м 4/0
[Ci fib]
+24.4 +15.9 59 +28 +28 душно 1013.4 931.4
18 16.02 штиль 0 4000 м 1/0
[Ci fib]
+22.6 +14.8 61 +26 +26 жарко 1014.5 932.0
21 16.02 штиль 0 4000 м ясно +19.8 +13.4 67 +21 +21 комфорт 1013.9 930.7
00 17.02 штиль 0 4000 м 1/0
[Ci fib]
+17.4 +9.8 61 +17 +17 1014.0 930.2
03 17.02 штиль 0 4000 м 1/0
[Ci fib]
+22.2 +10.3 47 +24 +29 комфорт 1013.3 930.9 +15.9 +31.8
06 17.02 С 2 10 км ясно +29.4 +15.3 42 +32 +49 душно 1011.3 930.9
09 17.02 СВ 3 10 км ясно +31.4 +19.6 50 +37 +49 очень
душно
1007.0 927.3
12 17.02 С 2 10 км ясно +30.6 +18.7 49 +36 +37 очень
душно
1006.4 926.6 +32.0
15 17.02 штиль 0 4000 м ясно +25.0 +16.2 58 +28 +28 жарко 1009.5 927.9
18 17.02 ЮВ 2 4000 м ясно +22.0 +14.5 62 +25 +25 комфорт 1010.9 928.4
21 17.02 штиль 0 4000 м ясно +19.0 +11.3 61 +20 +20 1011.2 927.8
00 18.02 штиль 0 4000 м ясно +15.4 +11.9 80 +15 +15 1011.4 927.1
03 18.02 штиль 0 4000 м мгла 3/0
[Ci fib]
+20.4 +14.1 67 +23 +27 комфорт 1011.7 928.9 +14.2 +32.0
06 18.02 ЮВ 2 10 км ясно +30.8 +18.2 47 +35 +52 опасность
солнечного
удара
1009.0 929.0
09 18.02 Ю 3 10 км ясно +33.4 +19.3 43 +39 +51 опасность
солнечного
удара
1005.7 926.7
12 18.02 В 2 10 км ясно +32.4 +18.4 43 +37 +38 очень
душно
1005.2 926.0 +33.9
15 18.02 З 3 4000 м ясно +25.2 +16.8 60 +29 +29 душно 1008.8 927.5
18 18.02 штиль 0 4000 м ясно +21.8 +14.6 64 +25 +25 комфорт 1010.7 928.2
21 18.02 штиль 0 4000 м ясно +18.2 +11.6 65 +18 +18 1010.0 926.8
00 19.02 штиль 0 4000 м мгла ясно +16.4 +11.1 71 +16 +16 1010.9 927.0
03 19.02 штиль 0 4000 м ясно +21.6 +10.8 50 +23 +29 комфорт 1012.1 929.4 +14.9 +33.9
06 19.02 Ю 2 10 км ясно +30.0 +11.4 32 +31 +47 жарко 1010.3 929.9
09 19.02 Ю 2 10 км 4/4 450 м
[Sc]
+32.0 +18.6 45 +37 +45 очень
душно
1007.4 927.7
12 19.02 ЮВ 1 10 км 1/1 450 м
[Sc]
+31.6 +15.8 39 +34 +35 душно 1005.5 926.0 +33.4
15 19.02 З 2 4000 м ясно +25.6 +20.9 75 +32 +32 очень
душно
1009.5 928.2
18 19.02 штиль 0 4000 м ясно +21.6 +19.5 88 +27 +27 душно 1011.3 928.8
21 19.02 штиль 0 4000 м ясно +19.0 +17.4 90 +20 +20 1011.6 928.2
00 20.02 штиль 0 2000 м дымка 4/0
[Ci fib]
+19.0 +18.1 95 +21 +21 комфорт 1011.4 928.0
03 20.02 штиль 0 4000 м 3/0
[Ci fib]
+21.0 +15.9 73 +24 +29 комфорт 1012.6 929.7 +15.8 +33.4
06 20.02 ЮВ 5 10 км ясно +29.2 +13.8 39 +31 +39 жарко 1010.5 930.1
09 20.02 Ю 3 10 км 5/4 450 м
[Sc Ci fib]
+32.0 +17.1 41 +36 +42 очень
душно
1005.9 926.4
12 20.02 В 3 10 км 4/3 450 м
[Sc Ci fib]
+31.2 +16.5 41 +34 +35 душно 1005.5 926.0 +32.8
15 20.02 З 3 4000 м ясно +25.0 +19.3 71 +30 +30 душно 1009.7 928.1
18 20.02 штиль 0 4000 м ясно +22.2 +18.8 81 +28 +28 душно 1010.8 928.6
21 20.02 штиль 0 4000 м ясно +19.4 +17.5 89 +21 +21 комфорт 1010.3 927.2
00 21.02 штиль 0 2000 м дымка ясно +18.2 +16.6 90 +19 +19 1010.1 926.9
03 21.02 В 3 2000 м мгла ясно +21.6 +15.5 68 +25 +29 комфорт 1010.9 928.4 +15.7 +32.8
06 21.02 Ю 3 10 км ясно +29.6 +13.5 37 +31 +46 жарко 1008.9 928.7
09 21.02 В 3 10 км 5/4 450 м
[Cu Sc Ci fib]
+32.0 +16.8 40 +35 +42 очень
душно
1005.5 926.0
12 21.02 В 3 10 км 3/0
[Ci fib]
+31.4 +17.1 42 +35 +36 очень
душно
1004.9 925.4 +32.9
15 21.02 В 1 4000 м 3/0
[Ci fib]
+26.4 +14.9 49 +29 +29 жарко 1007.8 926.9
18 21.02 штиль 0 4000 м ясно +22.6 +15.2 63 +26 +26 жарко 1009.9 927.7
21 21.02 штиль 0 4000 м 5/3 450 м
[Sc Ac trans]
+20.4 +14.1 67 +23 +23 комфорт 1009.5 926.9
00 22.02 штиль 0 4000 м ясно +18.8 +11.5 63 +19 +19 1009.8 926.6
03 22.02 штиль 0 4000 м 3/0
[Ci fib]
+21.8 +11.5 52 +24 +29 комфорт 1011.1 928.6 +17.4 +32.9
06 22.02 Ю 4 10 км ясно +29.6 +13.5 37 +31 +42 жарко 1008.8 928.6
09 22.02 В 3 10 км 4/3 450 м
[Sc Ci fib]
+32.8 +16.3 37 +36 +44 очень
душно
1004.4 925.2
12 22.02 СВ 2 10 км 4/1 600 м
[Sc Ac trans Ci fib]
+31.4 +15.2 38 +34 +34 душно 1004.2 924.9 +33.3

 

Местоположение метеостанции Belgaum Airport (Karnataka, Индия): широта 15.85 долгота 74.62 высота над уровнем моря 747 м.

В архиве по умолчанию представлена погода в Belgaum Airport за последнюю неделю. Архивные данные за месяц целиком и за предыдущие месяцы, начиная с января 2011 года, Вы можете получить, выбрав интересующий диапазон дат из раскрывающегося списка и нажав кнопку "Ввод!".

Внимание! Время в таблицах - всемирное. Для получения местного времени необходимо прибавить поправку, которая в Belgaum Airport равна 5.5 ч.

Смотрите также архив погоды в соседних городах и на ближайших метеорологических станциях:

Погода в Belgaum (Karnataka, Индия) (10 км)
Погода в Dharwad (Karnataka, Индия) (56 км)
Погода в Panjim (Goa, Индия) (95 км)
Погода в Mormugao (Goa, Индия) (102 км)
Погода в Kolhapur (Maharashtra, Индия) (103 км)
Погода в Vengurla (Maharashtra, Индия) (106 км)
Погода в Sangli (Maharashtra, Индия) (111 км)
Погода в Gadag (Karnataka, Индия) (118 км)
Погода в Karwar (Karnataka, Индия) (130 км)
Погода в Haveri (Karnataka, Индия) (145 км)

Пояснения к столбцам:

Ветер - указаны скорость ветра в м/с - средняя за 10 мин, порывы в срок и между сроками (в фигурных скобках) и направление, откуда дует ветер: С - северный, СВ - северо-восточный, В - восточный, ЮВ - юго-восточный, Ю - южный, ЮЗ - юго-западный, З - западный, СЗ - северо-западный.
Видимость - горизонтальная дальность видимости в метрах или километрах. При видимости от 1 до 10 км при отсутствии осадков обычно наблюдается дымка, при ухудшении видимости до 1 км и менее - туман. В сухую погоду видимость может ухудшаться дымом, пылью или мглою.
Явления - указаны атмосферные явления, наблюдавшиеся в срок или в последний час перед сроком; фигурными скобками обозначены явления, наблюдавшиеся между сроками (за 1-3 часа до срока); квадратными скобками обозначены град или гололедные отложения с указанием их диаметра в мм.
Облачность - указаны через наклонную черту общая и нижняя облачность в баллах и высота нижней границы облаков в метрах; квадратными скобками обозначены формы облаков: Ci - перистые, Cs - перисто-слоистые, Cc - перисто-кучевые, Ac - высококучевые, As - высокослоистые, Sc - слоисто-кучевые, Ns - слоисто-дождевые, Cu - кучевые, Cb - кучево-дождевые. Подробнее классификацию облаков см. в Атласе облаков (PDF).
T - Температура воздуха - температура, измеренная на высоте 2 м над землей.
Td - Температура точки росы - температура, при понижении до которой содержащийся в воздухе водяной пар достигнет насыщения.
f - Относительная влажность воздуха - влажноcть воздуха, измеренная на высоте 2 м над землей.
Te - Эффективная температура - температура, которую ощущает одетый по сезону человек в тени. Характеристика душности погоды. При расчете учитывается влияние влажности воздуха и скорости ветра на теплоощущения человека.
Tes - Эффективная температура на солнце - температура, которую ощущает человек, с поправкой на солнечный нагрев. Характеристика знойности погоды. Зависит от высоты солнца над горизонтом, облачности и скорости ветра. Ночью, в пасмурную погоду, а также при ветре 12 м/с и более поправка равна нулю.
P - Атмосферное давление - приведенное к уровню моря атмосферное давление.
Po - Атмосферное давление - измеренное на уровне метеостанции атмосферное давление.
Tmin - Минимальная температура - минимум температуры воздуха на высоте 2 м над землей.
Tmax - Максимальная температура - максимум температуры воздуха на высоте 2 м над землей.
R - Количество осадков - Количество выпавших осадков за период времени, мм. При наведении курсора мыши на число - период времени, за который выпало указанное количество осадков.
R24 - Количество осадков - Количество выпавших осадков за 24 часа, мм.
S - Снежный покров - Высота снежного покрова, см. При наведении курсора мыши на число - состояние снежного покрова и степень покрытия местности в баллах.